Location: Aranbee
(34.0885°N, 118.2342°W)
Time: 13:13:45
(UTC+00:00)

Tiros 1 - Pass Details

Date: 02 December 2020
Orbit: 630 x 663 km, 48.4° (Epoch: 21 January)

Event Time Altitude Azimuth Distance (km) Brightness Sun altitude
Rises 22:52:39 0° 274° (W) 2,989 11.2 17.9°
Reaches altitude 10° 22:55:29 10° 290° (WNW) 2,078 10.2 17.5°
Maximum altitude 22:59:11 22° 340° (NNW) 1,458 8.9 16.9°
Drops below altitude 10° 23:02:52 10° 31° (NNE) 2,077 9.2 16.4°
Sets 23:05:43 0° 47° (NE) 2,986 9.9 15.9°
